Regional Weather Roundup
Issued by NWS

Home | Current Version | Previous Version | Text Only | Print | Product List | Glossary Off
Versions: 1 2 3 4 5 6 7 8 9 10 11 12 13 14 15 16 17 18 19 20 21 22 23 24 25 26 27 28 29 30 31 32 33 34 35 36 37 38 39 40 41 42 43 44 45 46 47 48 49 50

000
ASUS43 KLOT 091008
RWRIL

ILLINOIS REGIONAL WEATHER ROUNDUP
NATIONAL WEATHER SERVICE CHICAGO/ROMEOVILLE IL
400 AM CST TUE FEB 09 2016

NOTE: "FAIR" INDICATES FEW OR NO CLOUDS BELOW 12,000 FEET WITH NO
SIGNIFICANT WEATHER AND/OR OBSTRUCTIONS TO VISIBILITY.

* THESE STATIONS ARE NOT UNDER NWS QUALITY CONTROL. THEY ALSO MAY NOT
  REPORT WEATHER SUCH AS PRECIPITATION OR FOG.

ILZ001-002-007-009-015-016-024-091100-
NORTHWEST ILLINOIS

CITY           SKY/WX    TMP DP  RH WIND       PRES   REMARKS
MOLINE         FLURRIES  15   9  76 NW13      29.86S WCI   1
STERLING*      PTCLDY    16   9  73 NW12      29.79S WCI   3
SAVANNA*       LGT SNOW  15   9  78 N13       29.85R WCI   1
$$

ILZ003-004-008-010-011-017-018-091100-
NORTH CENTRAL ILLINOIS

CITY           SKY/WX    TMP DP  RH WIND       PRES   REMARKS
ROCKFORD       LGT SNOW  16  11  80 NW12      29.80R BLWGSNOWWCI   3
FREEPORT*      LGT SNOW  14   9  80 NW15      29.82R WCI  -2
ROCHELLE*      LGT SNOW  16  12  84 NW13      29.79R WCI   3
DE KALB*       LGT SNOW  17  13  86 NW13      29.76S WCI   3
$$

ILZ005-006-012>014-019>023-091100-
NORTHEAST ILLINOIS

CITY           SKY/WX    TMP DP  RH WIND       PRES   REMARKS
CHICAGO-OHARE  LGT SNOW  18  13  80 NW14      29.73S WCI   4
CHICAGO-MIDWAY LGT SNOW  19  12  74 NW12      29.74R FOG     WCI   7
AURORA         LGT SNOW  19  13  77 NW15      29.76S WCI   5
LANSING*       FLURRIES  21  16  83 W6        29.73S WCI  13
JOLIET*        LGT SNOW  21  14  76 NW9       29.76S WCI  10
WAUKEGAN       LGT SNOW  17  13  84 NW12G21   29.72R FOG     WCI   4
DUPAGE AIRPORT LGT SNOW  17  11  77 NW16G22   29.74S WCI   2
KANKAKEE*      LGT SNOW  21  16  81 NW12G17   29.75S WCI   9
WHEELING       LGT SNOW  17  13  84 NW10      29.75R FOG     WCI   5
MORRIS*        LGT SNOW  19  14  79 NW12G18   29.75R WCI   7
ROMEOVILLE*    LGT SNOW  19  14  79 NW13      29.75R WCI   6
NORTHERLY ISL    N/A     20  15  81 W10         N/A  WCI   9
$$

LMZ740>746-091100-
SOUTHERN LAKE MICHIGAN

STATION/POSITION SKY/WX   TEMP    WIND        PRES    VSBY  WAVE
                          AIR SEA DIR/SP/G                  HT/PER
                          (F)     (DEG/KT/KT) (MB)    (MI)  (FT/S)
HARRISON CRIB              21     300/ 17/ 19   N/A
BURNHAM HARBOR             20     280/  9/ 15   N/A
CALUMET HARBOR             20     280/  5/ 15 1006.1S
BURNS HARBOR               23     310/ 16/ 19 1006.4F
MICHIGAN CITY              24     260/ 23/ 26   N/A
$$

ILZ025>027-034>036-040-047-049-050-058-095>099-091100-
WEST-CENTRAL ILLINOIS

CITY           SKY/WX    TMP DP  RH WIND       PRES   REMARKS
QUINCY         LGT SNOW  16  10  77 NW23      29.90S WCI  -2
GALESBURG*     FLURRIES  14  11  87 NW12      29.85S WCI   1
MACOMB*        FLURRIES  17  13  86 NW17      29.89S WCI   1
JACKSONVILLE*  LGT SNOW  19  15  82 NW12      29.88R WCI   7
PITTSFIELD*    LGT SNOW  19  15  85 NW10      29.90S WCI   7
$$

ILZ028>032-037-038-041>044-048-051>054-059>061-091100-
CENTRAL ILLINOIS

CITY           SKY/WX    TMP DP  RH WIND       PRES   REMARKS
PONTIAC        FLURRIES  19  15  83 NW15G21   29.79S WCI   5
BLOOMINGTON    LGT SNOW  18  14  84 NW15      29.79S FOG     WCI   4
DECATUR        CLOUDY    19  11  70 W16       29.81S WCI   4
PEORIA         LGT SNOW  16  11  80 NW14G21   29.84R WCI   2
LACON*         LGT SNOW  17  11  79 NW12      29.82R WCI   4
LINCOLN*       FLURRIES  19  14  84 W9G17     29.83S WCI   7
SPRINGFIELD    LGT SNOW  18  13  80 NW14      29.85S WCI   4
TAYLORVILLE    FLURRIES  19  14  79 NW15      29.84S WCI   5
$$

ILZ033-039-045-046-055>057-062-063-091100-
EAST-CENTRAL ILLINOIS

CITY           SKY/WX    TMP DP  RH WIND       PRES   REMARKS
CHAMPAIGN      FLURRIES  19  13  77 W16       29.78S WCI   4
RANTOUL*       CLOUDY    20  15  79 NW18      29.77S WCI   5
MATTOON        CLOUDY    18  12  77 NW15      29.80S WCI   4
PARIS*         CLOUDY    19  15  82 NW15      29.80R WCI   5
$$

ILZ079-100>102-091100-
SOUTHWEST ILLINOIS

CITY           SKY/WX    TMP DP  RH WIND       PRES   REMARKS
ALTON          LGT SNOW  19  13  78 NW15G26   29.89S WCI   5
BELLEVILLE     LGT SNOW  19  16  86 NW14      29.88S FOG     WCI   6
CAHOKIA*       LGT SNOW  21  14  74 NW17      29.91S WCI   7
SPARTA*        LGT SNOW  19  15  85 NW8       29.91S WCI   9
$$

ILZ064>066-069>071-074>076-080>082-084>086-088>090-092>094-091100-
SOUTH-CENTRAL ILLINOIS

CITY           SKY/WX    TMP DP  RH WIND       PRES   REMARKS
CARBONDALE     CLOUDY    21  12  68 NW15G24   29.90S WCI   8
CAIRO*         LGT SNOW  24  20  87 NW13      29.91R WCI  12
EFFINGHAM*     CLOUDY    20  15  82 W10G16    29.85S WCI   8
MARION         LGT SNOW  23  18  80 W9        29.89S WCI  13
MT. VERNON     CLOUDY    21  10  63 W10G17    29.87S WCI  10
CENTRALIA*     CLOUDY    21  15  79 NW14      29.86R WCI   8
SALEM*         CLOUDY    22  13  68 W9G18     29.85S WCI  11
METROPOLIS*    LGT SNOW  25  21  86 NW6       29.89S WCI  18
$$

ILZ067-068-072-073-078-083-087-091-091100-
SOUTHEAST ILLINOIS

CITY           SKY/WX    TMP DP  RH WIND       PRES   REMARKS
LAWRENCEVILLE  LGT SNOW  20  14  77 NW17G24   29.84S WCI   5
FLORA*         CLOUDY    22  15  74 W10       29.86S WCI  11
FAIRFIELD*     CLOUDY    21  14  74 NW6       29.85F WCI  13
HARRISBURG*    FLURRIES  22  18  86 NW7       29.88F WCI  13
ROBINSON*      FLURRIES  18  14  83 W13       29.84S WCI   5
CARMI*         FLURRIES  21  15  79 W10G18    29.87S WCI  10
$$

ABBREVIATIONS USED IN REMARKS
   TC - TEMPERATURE IN CELSIUS
  WCI - WIND CHILL INDEX
   HX - HEAT INDEX
  VSB - VISIBILITY
$$





USA.gov is the U.S. government's official web portal to all federal, state and local government web resources and services.